Regional Weather Roundup
Issued by NWS

Home | Current Version | Previous Version | Graphics & Text | Print | Product List | Glossary Off
Versions: 1 2 3 4 5 6 7 8 9 10 11 12 13 14 15 16 17 18 19 20 21 22 23 24 25 26 27 28 29 30 31 32 33 34 35 36 37 38 39 40 41 42 43 44 45 46 47 48 49 50

000
ASUS43 KMKX 041611
RWRWI

WISCONSIN REGIONAL WEATHER ROUNDUP
NATIONAL WEATHER SERVICE MILWAUKEE/SULLIVAN WI
1000 AM CST WED MAR 04 2015

NOTE: "FAIR" INDICATES FEW OR NO CLOUDS BELOW 12,000 FEET WITH NO
SIGNIFICANT WEATHER AND/OR OBSTRUCTIONS TO VISIBILITY.

WIZ001-002-006>008-014>016-023>028-041700-
NORTHWEST WISCONSIN

CITY           SKY/WX    TMP DP  RH WIND       PRES   REMARKS
SUPERIOR ARPT  CLOUDY     0  -8  66 W9        30.15R WCI -15
ASHLAND        PTSUNNY    2  -9  60 W12       30.11R WCI -15
HAYWARD        CLOUDY     1 -10  60 W10G16    30.08S HAZE    WCI -15
SIREN          SUNNY      1 -10  58 NW16      30.15S WCI -18
CUMBERLAND     SUNNY      1  -9  60 W15G22    30.11S WCI -18
RICE LAKE      SUNNY      2  -9  59 W13       30.15S WCI -15
CHETEK         SUNNY      2  -8  60 W8        30.14F WCI -11
LADYSMITH      SUNNY      3  -9  58 W14       30.11S WCI -15
EAU CLAIRE     SUNNY      4  -8  57 NW17G24   30.17S WCI -16
MENOMONIE      SUNNY      6  -7  56 W12G17    30.19R WCI -10
NEW RICHMOND   MOSUNNY    4 -10  53 W15       30.18S WCI -14
OSCEOLA        SUNNY      4  -8  56 W9        30.22R WCI -10
$$

WIZ003>005-009-010-017-018-041700-
NORTH CENTRAL WISCONSIN

CITY           SKY/WX    TMP DP  RH WIND       PRES   REMARKS
MANITOWISH WTR CLOUDY    -1 -11  63 NW12G20   29.98R WCI -19
ARBOR VITAE    SUNNY      1 -10  59 NW12G18   29.99R WCI -15
WOODRUFF       SUNNY      1 -10  59 NW12G18   29.99R WCI -15
RHINELANDER    PTSUNNY    1 -11  57 NW10      29.99S WCI -15
EAGLE RIVER    SUNNY      0 -13  54 W14G22    29.97R WCI -18
LAND O LAKES   CLOUDY     2 -11  55 NW13G20   29.96R WCI -15
PHILLIPS       CLOUDY     0 -11  58 W8        30.03S WCI -14
TOMAHAWK       SUNNY      1 -12  53 W16       30.02F WCI -18
MEDFORD        SUNNY      1  -9  61 W16G24    30.04S WCI -19
MERRILL        SUNNY      3 -11  53 NW13G20   30.04R WCI -14
$$

WIZ029-030-035-036-043>047-041700-
CENTRAL WISCONSIN

CITY           SKY/WX    TMP DP  RH WIND       PRES   REMARKS
WAUSAU         SUNNY      3  -7  63 W15       30.05S WCI -16
MOSINEE        MOSUNNY    3  -8  60 NW20G28   30.07R WCI -18
MARSHFIELD     SUNNY      4  -8  57 NW21      30.09R WCI -17
STEVENS POINT  MOSUNNY    3  -8  58 W15G22    30.09R WCI -15
WAUPACA        SUNNY     11  -5  48 W15G21    30.10R WCI  -6
WAUTOMA        SUNNY     10  -5  51 W12       30.12R WCI  -5
WISC RAPIDS    SUNNY      6  -7  54 W15       30.12R WCI -12
CAMP DOUGLAS   NOT AVBL
$$

WIZ011>013-019>022-031-037>040-048>050-041700-
NORTHEAST WISCONSIN

CITY           SKY/WX    TMP DP  RH WIND       PRES   REMARKS
ANTIGO         SUNNY      1  -9  61 W18       30.00R WCI -20
SHAWANO        SUNNY     10  -7  45 W12G18    30.07R WCI  -4
OCONTO         SUNNY      9  -5  53 W15G23    30.05S WCI  -8
STURGEON BAY   SUNNY      9  -6  52 W16       30.04R WCI  -9
GREEN BAY      SUNNY      9  -5  53 W20G25    30.06S WCI -10
MANITOWOC      SUNNY     12  -1  56 W18       30.06R WCI  -6
APPLETON       SUNNY      9  -6  52 W17       30.07R WCI -10
CLINTONVILLE   SUNNY      9  -6  52 W15       30.07R WCI  -8
OSHKOSH        SUNNY     10  -3  55 W15G24    30.08R WCI  -7
$$

WIZ032>034-041-042-053>061-041700-
SOUTHWEST WISCONSIN

CITY           SKY/WX    TMP DP  RH WIND       PRES   REMARKS
LA CROSSE      SUNNY     10  -5  50 NW16G25   30.22R WCI  -7
SPARTA         SUNNY     10  -4  54 NW14      30.18R WCI  -7
VIROQUA        SUNNY      6  -4  61 NW10      30.13R WCI  -8
BOSCOBEL       SUNNY     11  -5  48 W8        30.22R WCI  -1
PRAIRIE DU CHI SUNNY     10  -6  48 W12       30.25R WCI  -5
PLATTEVILLE    SUNNY     10  -1  63 W15       30.17R WCI  -7
$$

WIZ056-057-062-063-064-067-068-041700-
SOUTH CENTRAL WISCONSIN

CITY           SKY/WX    TMP DP  RH WIND       PRES   REMARKS
REEDSBURG      SUNNY     10  -2  56 NW16      30.14R WCI  -7
BARABOO/DELLS  SUNNY      9  -4  54 W12G18    30.12R WCI  -6
LONE ROCK      SUNNY     12  -3  51 W16       30.19R WCI  -5
MINERAL POINT  SUNNY     12   0  57 W13G21    30.13R WCI  -3
MADISON        MOSUNNY   13  -3  49 NW16G23   30.13R WCI  -3
MIDDLETON      SUNNY     15  -1  49 NW14      30.15R WCI   0
WATERTOWN      SUNNY     13   0  58 NW14G20   30.10R WCI  -3
MONROE         CLOUDY    12   3  67 NW14G20   30.12R WCI  -3
JANESVILLE     SUNNY     16   1  53 NW15      30.12R WCI   1
$$

WIZ051-052-058>065-066-070>072-041700-
SOUTHEAST WISCONSIN

CITY           SKY/WX    TMP DP  RH WIND       PRES   REMARKS
MILWAUKEE      MOSUNNY   15  -2  46 NW16      30.09R WCI  -1
WAUKESHA       MOSUNNY   10   0  61 W18G25    30.09R WCI  -8
MILWAUKEE/TIMM NOT AVBL
RACINE         MOSUNNY   16  -1  47 W14G20    30.10R WCI   2
BURLINGTON     SUNNY     12  -3  51 NW18      30.10R WCI  -5
KENOSHA        MOSUNNY   16   4  59 NW15      30.09R WCI   1
FOND DU LAC    SUNNY     11  -2  56 W16       30.09R WCI  -6
SHEBOYGAN      SUNNY     10  -3  55 NW14G26   30.06S WCI  -6
WEST BEND      SUNNY     12   0  57 W15G21    30.06R WCI  -4
JUNEAU         SUNNY     10  -2  59 W9G20     30.10R WCI  -4
$$

LSZ147-162-041700-
LAKE SUPERIOR

STATION/POSITION TIME  TEMP    WIND        PRES    WAVE
                       AIR SEA DIR/SP/G            HT/PER
                 (UTC) (F)     (DEG/KT/KT) (MB)    (FT/S)
DEVILS ISLAND    1500    1     290/ 21/ 25 1020.4R
PORT WING        1500    1     280/ 16/ 18 1020.0R
SAXON HARBOR     1500    2     250/  4/  8 1019.3R
$$

LMZ867-665-643>646-041700-
LAKE MICHIGAN

STATION/POSITION TIME  TEMP    WIND        PRES    WAVE
                       AIR SEA DIR/SP/G            HT/PER
                 (UTC) (F)     (DEG/KT/KT) (MB)    (FT/S)
NORTHPORT PIER   1506   11     290/  9/ 18 1016.6R
SISTER BAY       1513   14     300/ 13/ 15   N/A
KEWAUNEE LAKESHO 1500   11     300/ 15/ 19 1016.2R
SHEBOYGAN LAKESH 1500   11     290/ 18/ 23 1019.4R
PORT WASHINGTON  1500   13     290/  7/ 18 1019.3R
MILWAUKEE LAKESH 1500   14     300/ 13/ 20   N/A
KENOSHA   LAKESH 1500   15     320/ 14/ 17 1018.3R
$$

TC  - TEMPERATURE IN CELSIUS
VSB - VISIBILITY IN STATUTE MILES
WCI - WIND CHILL INDEX
HX  - HEAT INDEX



USA.gov is the U.S. government's official web portal to all federal, state and local government web resources and services.